Location: Unspecified
(0.0000°N, 0.0000°E)
Time: 21:18:04
(UTC+00:00)

Tiros 1 - All Passes

Search period start: 01 April 2015 00:00
Search period end: 11 April 2015 00:00
Orbit: 632 x 666 km, 48.4° (Epoch: 01 April)

Date Brightness Start Highest point End Pass type
(mag) Time Alt. Az. Time Alt. Az. Time Alt. Az.
01 Apr - 05:43:47 10° S 05:46:49 18° SE 05:50:00 10° E daylight
01 Apr - 07:24:47 10° WSW 07:28:59 34° NW 07:33:08 10° NNE daylight
01 Apr - 17:55:51 10° NNW 18:00:08 33° NE 18:04:29 10° ESE daylight
01 Apr - 19:38:44 10° W 19:42:20 20° SW 19:45:47 10° S visible
02 Apr - 06:08:59 10° SSW 06:13:33 60° SE 06:18:06 10° NE daylight
02 Apr - 07:55:10 10° NW 07:55:50 10° NW 07:56:10 10° NW daylight
02 Apr - 18:22:00 10° NW 18:26:47 73° SW 18:31:35 10° SSE visible
03 Apr - 04:55:13 10° S 04:58:00 16° SE 05:00:58 10° E visible
03 Apr - 06:35:53 10° WSW 06:40:11 37° NW 06:44:26 10° NNE daylight
03 Apr - 17:07:09 10° N 17:11:18 30° NE 17:15:33 10° ESE daylight
03 Apr - 18:49:44 10° W 18:53:29 22° SW 18:57:09 10° S visible
04 Apr - 05:20:13 10° SSW 05:24:45 54° SE 05:29:15 10° NE visible
04 Apr - 07:05:23 10° WNW 07:06:59 11° NW 07:08:19 10° NNW daylight
04 Apr - 17:33:10 10° NW 17:37:57 80° SW 17:42:47 10° SE daylight
05 Apr - 04:06:40 10° SSE 04:09:10 15° SE 04:11:53 10° E visible
05 Apr - 05:47:00 10° WSW 05:51:23 41° NW 05:55:43 10° NNE daylight
05 Apr - 16:18:28 10° N 16:22:28 27° NE 16:26:35 10° ESE daylight
05 Apr - 18:00:44 10° WNW 18:04:39 24° SW 18:08:28 10° S daylight
06 Apr - 04:31:28 10° SSW 04:35:57 48° SE 04:40:25 10° NE visible
06 Apr - 06:16:02 10° WNW 06:18:10 13° NW 06:20:02 10° NNW daylight
06 Apr - 16:44:21 10° NW 16:49:07 88° SW 16:53:57 10° SE daylight
07 Apr - 03:18:10 10° SSE 03:20:19 13° SE 03:22:44 10° E visible
07 Apr - 04:58:06 10° SW 05:02:34 46° NW 05:06:58 10° NNE visible
07 Apr - 15:29:47 10° N 15:33:38 25° NE 15:37:35 10° ESE daylight
07 Apr - 17:11:45 10° WNW 17:15:48 26° SW 17:19:47 10° S daylight
08 Apr - 03:42:41 10° SSW 03:47:07 44° SE 03:51:32 10° ENE visible
08 Apr - 05:26:49 10° W 05:29:19 14° NW 05:31:36 10° NNW visible
08 Apr - 15:55:31 10° NW 16:00:17 84° NE 16:05:06 10° SE daylight
09 Apr - 02:29:43 10° SSE 02:31:28 12° SE 02:33:30 10° ESE night (unlit)
09 Apr - 04:09:13 10° SW 04:13:44 51° NW 04:18:13 10° NNE visible
09 Apr - 14:41:07 10° N 14:44:46 23° NE 14:48:35 10° ESE daylight
09 Apr - 16:22:47 10° WNW 16:26:57 29° SW 16:31:04 10° S daylight
10 Apr - 02:53:55 10° SSW 02:58:18 40° SE 03:02:39 10° ENE visible
10 Apr - 04:37:39 10° W 04:40:28 15° NW 04:43:05 10° NNW visible
10 Apr - 15:06:41 10° NW 15:11:26 76° NE 15:16:14 10° SE daylight
